Wind_Speed
11 14 14 13 11 8 6 6 7 7 8 11 10 9 8 5 5 7 7 10 9 8 5 13 12 13 13 13 24 26 24 20 19 17 11 16 13 11 9 11 8 7 8 9 10 12 11 11 10
9 11 12 13 12 5 5 6 6 7 9 11 9 9 6 6 4 5 6 9 7 6 6 13 14 13 14 14 22 28 27 22 19 17 17 15 13 11 12 11 10 11 10 11 9 11 11 10 9
10 9 9 11 10 7 4 5 5 7 8 10 9 8 8 5 5 4 6 8 7 6 6 9 7 9 13 20 20 30 27 24 15 17 16 14 13 12 11 12 12 12 11 10 11 11 10 10 11
9 5 7 9 10 6 4 4 5 6 8 10 10 9 9 5 6 6 7 7 5 6 7 7 3 10 15 21 21 23 24 21 15 19 19 16 16 14 15 13 12 11 10 10 10 9 10 11 11
4 5 6 5 9 9 6 5 7 7 8 11 10 9 8 7 6 6 9 9 6 6 8 8 2 6 20 19 20 20 21 20 15 17 20 20 19 18 15 12 11 11 12 12 9 10 11 13 14
4 9 8 4 12 10 7 7 8 7 7 10 10 8 8 8 9 6 10 12 8 8 9 9 4 6 10 18 14 15 16 21 20 24 23 21 20 17 15 14 14 14 14 11 10 11 13 15 16
5 10 8 5 9 7 5 8 8 7 8 11 9 7 8 9 10 8 10 11 11 11 10 8 9 9 9 5 9 11 14 19 27 26 23 22 20 18 16 16 16 14 12 11 10 12 16 16 17
10 14 7 6 9 9 8 8 8 7 8 9 10 5 8 9 10 10 10 11 12 14 13 12 10 10 9 9 11 23 20 30 27 26 23 21 20 18 16 15 15 13 11 11 11 16 16 16 17
4 11 8 8 9 8 7 8 7 6 7 9 10 7 8 9 10 9 11 11 14 15 12 12 13 13 11 10 13 24 29 26 28 25 22 21 19 17 16 15 14 12 11 11 15 17 16 15 15
8 10 12 10 12 9 9 11 7 5 6 7 11 11 9 10 9 7 9 13 12 14 12 12 14 14 15 18 21 25 28 30 26 24 22 20 18 16 15 14 14 14 12 14 18 17 15 14 15
6 12 10 12 10 11 13 10 7 7 5 8 9 10 12 11 10 9 8 11 13 14 13 12 15 17 19 17 20 22 23 25 25 22 20 19 17 16 15 14 14 14 13 15 17 16 14 15 14
7 10 15 10 12 13 10 10 9 6 5 9 8 8 12 11 10 11 10 12 13 13 11 11 12 17 21 23 20 23 23 23 22 21 19 19 18 17 16 14 14 13 14 15 16 14 15 15 13
6 13 7 14 11 10 10 10 9 7 6 7 8 6 10 12 12 11 9 13 12 12 10 10 12 21 21 22 22 21 20 20 19 18 18 18 17 15 15 14 13 13 15 17 16 14 14 13 13
12 13 10 14 10 13 13 13 10 9 10 9 9 7 8 12 12 12 13 13 14 12 11 11 14 20 20 20 19 19 18 17 17 17 17 17 16 15 15 14 14 15 15 16 15 15 15 13 10
17 4 7 11 8 5 15 15 16 17 14 11 11 9 8 11 11 11 13 13 14 12 11 14 16 19 19 18 19 17 16 16 15 16 15 15 14 14 14 15 15 16 16 15 15 14 14 11 8
15 13 11 10 9 8 17 20 25 20 16 14 11 11 9 11 12 11 12 13 13 12 10 15 18 17 17 18 17 15 15 14 16 15 15 15 15 15 15 15 16 16 16 14 14 14 13 10 8
18 15 17 16 14 14 16 20 12 17 13 12 11 12 12 12 13 13 12 12 14 12 10 13 17 19 18 17 16 16 17 15 15 16 16 14 13 14 14 14 16 16 15 15 13 13 11 9 7
20 22 18 19 20 18 21 26 21 19 18 16 13 13 13 12 14 15 13 13 14 14 12 14 15 18 19 18 19 17 15 14 15 15 14 14 12 10 10 12 15 17 17 16 15 12 10 8 4
24 24 25 21 20 24 19 29 26 24 22 15 17 16 16 15 15 16 15 14 15 15 14 15 15 16 19 19 18 17 14 13 13 16 14 13 11 10 9 10 12 16 17 18 15 12 10 6 1
24 27 29 22 25 22 22 15 20 24 21 19 19 19 20 19 18 19 18 15 14 15 15 15 14 16 17 17 16 15 16 14 13 14 13 12 10 10 10 9 9 13 16 16 14 10 6 3 2
24 25 28 22 24 23 21 21 12 21 28 26 26 20 23 23 22 20 21 18 16 15 15 16 14 13 15 17 16 15 14 14 12 12 12 11 10 9 8 9 11 13 15 14 11 9 6 1 3
19 24 25 19 18 14 14 15 24 23 33 34 24 23 23 23 21 20 22 21 18 16 14 15 16 14 14 14 13 13 13 12 11 10 11 12 10 10 9 8 10 13 14 12 9 6 3 0 3
20 21 20 15 16 13 11 11 25 32 22 27 23 24 22 26 21 21 21 23 19 18 17 13 14 15 14 14 13 12 11 12 11 13 12 11 10 10 9 9 10 11 12 11 10 7 5 3 1
22 19 16 13 13 9 10 8 14 19 5 23 26 21 19 26 26 24 22 22 22 18 17 17 14 13 14 14 13 13 12 10 10 12 14 14 12 10 8 10 11 12 12 10 10 9 7 5 3
15 14 9 12 12 10 9 4 6 5 9 5 17 25 22 27 28 24 20 20 22 21 19 17 18 16 14 13 13 13 12 11 11 11 13 12 12 11 11 10 10 11 10 10 10 10 8 7 5
13 14 14 12 15 9 16 9 6 5 6 13 6 27 31 27 29 25 25 24 24 22 21 19 17 16 15 14 13 13 13 12 13 13 12 12 12 12 12 13 12 11 10 8 8 7 7 7 6
15 17 21 11 19 14 12 17 9 11 12 12 14 15 25 24 28 27 27 26 25 24 22 20 18 17 16 14 14 13 13 13 12 12 12 12 12 11 12 14 13 11 11 10 11 9 8 7 7
18 15 14 14 11 14 15 14 14 15 14 13 18 23 24 27 25 30 31 29 27 26 24 22 19 18 16 16 15 14 14 14 13 12 11 11 12 12 12 14 12 11 11 12 13 12 11 10 9
11 13 15 19 16 11 14 17 20 20 17 16 15 25 26 29 32 32 34 32 31 28 24 24 22 21 20 19 17 16 16 16 16 16 14 14 14 14 13 15 15 14 13 14 14 13 12 11 11
14 14 13 12 13 15 21 21 32 26 21 18 16 18 24 33 40 33 34 31 30 27 26 24 23 24 24 21 20 20 19 18 17 16 16 16 16 15 17 16 16 15 16 16 17 16 15 14 13
Wind_Direction
92 87 85 86 85 79 78 94 103 97 90 89 81 102 99 102 106 119 129 102 85 76 124 155 132 138 160 177 188 183 181 178 177 171 166 145 154 146 124 123 121 119 118 110 91 89 85 81 68
108 93 96 95 88 71 86 96 94 101 98 95 90 95 96 91 112 124 125 112 106 92 64 152 134 144 159 162 181 182 177 180 168 179 151 143 148 133 133 131 130 124 106 95 89 88 89 82 73
87 97 107 107 115 101 96 95 99 103 105 108 101 94 92 95 100 127 137 116 108 106 87 89 94 140 161 151 178 175 174 175 171 146 148 149 140 134 129 129 126 114 104 98 97 100 93 80 72
94 107 110 113 132 124 110 134 118 108 114 108 108 99 96 88 100 120 137 108 108 107 113 90 84 124 158 139 145 150 160 171 187 159 155 147 139 136 132 128 118 106 107 105 107 105 86 72 70
354 149 130 111 119 138 126 144 121 97 109 111 109 112 106 90 92 121 122 101 96 110 109 118 145 120 142 149 156 161 174 166 165 162 144 141 140 135 126 119 116 116 110 109 114 96 80 73 85
96 129 120 150 137 122 124 133 109 99 106 118 113 114 115 107 95 117 114 102 96 103 112 128 127 120 132 159 168 172 160 165 176 149 138 135 132 129 123 125 122 115 117 118 102 89 83 89 89
136 117 131 119 149 164 115 112 107 121 116 115 105 109 120 111 102 122 117 106 108 107 116 129 149 157 178 185 184 209 194 199 155 141 141 134 130 129 130 124 117 120 119 107 97 90 93 100 96
154 146 143 129 138 135 109 118 116 118 115 122 116 113 122 116 111 125 126 116 115 114 106 123 135 149 147 120 160 181 169 155 144 142 138 133 131 129 126 123 122 122 120 105 100 99 105 102 100
186 162 179 147 150 140 121 125 116 104 110 120 126 125 121 116 114 127 131 124 121 111 103 97 110 107 116 108 176 197 160 143 140 134 131 131 128 129 129 125 131 130 119 118 103 103 102 104 100
161 151 167 186 172 164 139 130 119 108 115 129 132 123 122 114 109 122 131 129 126 119 110 95 92 103 108 116 146 164 151 132 130 130 131 128 131 135 128 134 138 132 135 116 105 108 110 108 96
182 181 162 173 161 164 146 124 120 121 108 108 129 123 123 123 121 120 125 129 129 124 112 109 100 101 108 108 101 111 122 128 128 128 130 134 138 139 138 147 141 142 126 109 110 117 120 106 98
201 192 195 178 169 166 155 163 123 134 139 132 144 130 126 121 122 140 137 136 137 127 117 111 109 116 110 109 114 115 119 124 129 132 132 137 143 147 147 145 143 133 116 112 114 118 111 105 97
249 202 241 208 185 185 187 173 162 150 148 138 142 139 130 125 129 140 135 140 143 131 120 117 114 131 122 118 117 122 128 133 133 134 140 146 147 146 142 143 128 120 122 122 119 120 109 105 96
180 194 223 228 202 202 199 170 170 160 154 145 143 144 134 128 131 137 137 141 146 138 129 118 118 130 123 117 117 119 127 129 130 135 147 152 151 147 142 138 128 124 126 125 129 123 119 109 99
216 229 200 221 275 240 193 192 179 166 162 149 143 151 146 136 139 136 141 147 145 142 143 130 131 127 125 117 118 120 123 127 134 137 144 151 153 144 143 134 132 126 130 134 134 128 122 119 108
207 226 242 239 235 234 200 200 185 166 160 150 150 155 158 148 148 146 149 150 150 151 152 145 141 141 135 127 124 131 134 128 141 139 146 150 153 149 145 139 128 127 133 138 136 135 133 123 105
228 227 236 237 235 235 225 220 198 201 171 157 159 166 168 164 161 154 158 157 157 155 153 154 152 147 145 144 131 139 141 146 148 142 139 143 146 148 146 140 135 136 143 141 145 146 144 136 112
224 224 232 239 236 238 236 214 196 231 221 189 187 179 177 172 169 164 164 166 163 160 159 155 162 149 146 149 150 146 137 139 145 143 138 136 136 139 148 150 150 148 155 155 161 159 154 155 122
227 234 235 237 247 253 248 218 191 194 232 197 203 191 184 179 179 175 170 174 171 168 162 160 166 157 153 144 150 153 145 146 143 152 146 139 138 141 149 157 161 157 165 171 170 173 173 182 149
232 238 247 244 255 269 275 267 249 223 217 198 204 192 185 179 179 186 177 177 178 177 172 166 173 162 161 156 154 158 153 152 149 154 149 145 149 152 153 149 159 165 175 176 177 179 193 219 318
234 238 252 253 256 267 286 283 274 255 211 209 201 191 189 186 180 186 182 183 180 175 183 171 177 169 161 161 163 162 160 155 158 155 158 163 160 161 155 151 155 166 176 172 177 187 188 207 327
240 235 247 256 254 261 283 278 270 277 215 204 197 187 192 192 186 188 187 188 183 173 179 184 180 179 173 167 170 164 158 152 165 175 169 173 168 165 167 167 165 163 174 170 173 194 185 344 359
228 231 243 248 234 243 272 282 266 268 229 211 179 192 203 196 199 192 195 190 191 180 173 181 187 182 180 180 182 182 177 173 167 169 176 181 181 176 169 171 177 180 181 185 185 195 185 189 105
236 237 240 224 212 223 245 265 274 278 302 210 195 192 212 192 197 199 198 197 196 188 182 179 183 179 181 189 183 190 193 197 186 183 183 186 193 185 183 181 179 186 193 198 203 210 209 218 216
235 231 237 245 250 237 225 231 264 11 336 205 204 196 210 192 197 197 203 206 201 198 188 189 182 184 179 184 185 195 204 199 193 195 195 198 199 195 195 195 197 196 195 196 206 212 211 216 211
222 204 219 238 247 237 223 220 212 206 217 211 218 202 204 200 200 195 200 207 209 202 197 192 194 186 189 188 190 194 201 202 199 199 202 208 208 206 201 205 207 211 210 208 218 216 210 214 209
233 215 212 220 233 231 258 225 219 213 228 224 207 208 206 204 199 198 201 207 209 209 203 201 200 198 192 196 195 194 199 199 202 204 198 204 215 217 218 221 215 214 219 218 222 220 214 216 224
202 215 219 222 237 226 253 239 207 218 229 213 209 203 210 192 202 205 205 202 209 208 209 205 206 209 208 203 203 206 202 201 202 206 211 205 215 224 222 222 228 229 234 235 234 234 226 220 229
208 213 207 218 205 217 230 230 206 204 222 206 192 214 215 209 210 213 207 205 207 206 205 212 209 213 215 215 214 214 211 210 209 207 209 215 215 214 215 222 226 229 235 248 250 245 245 242 242
198 207 211 197 229 219 208 220 200 203 194 193 196 212 220 214 203 206 207 207 209 212 210 215 217 219 218 219 223 225 224 219 218 216 214 218 221 223 228 229 232 236 237 242 254 258 255 256 253
Height
5889 5889 5889 5889 5893 5891 5890 5891 5889 5888 5887 5885 5885 5885 5886 5885 5885 5886 5884 5883 5882 5881 5881 5880 5880 5879 5881 5882 5885 5889 5893 5895 5896 5900 5901 5902 5907 5909 5911 5912 5912 5913 5913 5914 5915 5914 5916 5915 5915
5890 5891 5891 5890 5893 5894 5893 5892 5891 5889 5887 5886 5886 5886 5886 5886 5885 5885 5885 5883 5882 5882 5881 5879 5879 5880 5881 5883 5883 5887 5893 5895 5897 5900 5902 5905 5908 5911 5912 5912 5912 5914 5915 5916 5917 5916 5917 5917 5918
5892 5892 5892 5891 5893 5894 5894 5892 5891 5891 5888 5887 5887 5886 5886 5886 5886 5886 5885 5885 5884 5883 5883 5879 5881 5882 5881 5882 5884 5888 5893 5895 5895 5899 5903 5906 5909 5911 5911 5912 5914 5916 5917 5917 5919 5920 5919 5920 5920
5893 5894 5894 5893 5894 5895 5895 5894 5893 5891 5890 5888 5887 5887 5887 5887 5887 5887 5886 5886 5885 5886 5885 5884 5883 5883 5883 5884 5887 5889 5893 5896 5897 5899 5902 5906 5908 5911 5912 5914 5917 5918 5920 5920 5922 5922 5922 5922 5923
5893 5893 5894 5894 5894 5896 5896 5896 5894 5892 5890 5889 5888 5887 5888 5887 5887 5887 5887 5887 5888 5887 5887 5886 5885 5886 5886 5888 5889 5892 5893 5896 5898 5901 5903 5906 5909 5911 5914 5917 5919 5921 5921 5923 5924 5924 5924 5925 5926
5891 5893 5894 5895 5895 5896 5897 5896 5894 5893 5892 5890 5889 5888 5888 5888 5888 5888 5888 5889 5890 5890 5889 5887 5887 5888 5888 5890 5891 5892 5894 5897 5900 5903 5906 5909 5911 5913 5915 5919 5922 5923 5923 5924 5926 5926 5927 5928 5929
5891 5892 5894 5895 5896 5896 5897 5897 5895 5894 5893 5892 5890 5890 5890 5888 5888 5889 5889 5890 5892 5892 5891 5890 5889 5889 5890 5891 5892 5892 5895 5899 5900 5905 5908 5911 5913 5916 5918 5920 5922 5924 5924 5927 5928 5930 5930 5932 5932
5891 5892 5894 5895 5896 5897 5896 5897 5896 5895 5894 5893 5891 5891 5891 5889 5889 5890 5890 5891 5893 5894 5894 5892 5890 5890 5892 5892 5892 5892 5893 5897 5902 5907 5910 5913 5915 5917 5920 5921 5924 5925 5928 5929 5931 5933 5934 5935 5936
5891 5893 5894 5896 5896 5897 5897 5898 5897 5896 5894 5893 5892 5892 5892 5891 5890 5891 5892 5893 5895 5895 5894 5894 5894 5893 5893 5893 5893 5895 5895 5901 5906 5909 5912 5915 5916 5918 5921 5923 5926 5929 5930 5933 5935 5936 5937 5938 5938
5891 5892 5894 5895 5896 5897 5898 5898 5898 5897 5895 5895 5894 5893 5893 5892 5892 5893 5894 5895 5896 5897 5897 5897 5896 5896 5896 5897 5895 5895 5898 5902 5907 5911 5914 5916 5919 5922 5924 5926 5929 5931 5933 5935 5936 5937 5939 5940 5940
5890 5892 5893 5894 5895 5896 5898 5898 5898 5897 5897 5896 5896 5894 5894 5894 5894 5894 5895 5897 5898 5899 5900 5899 5900 5900 5900 5900 5898 5900 5904 5906 5911 5914 5917 5919 5922 5924 5927 5929 5932 5934 5935 5936 5938 5940 5941 5941 5941
5891 5890 5891 5893 5894 5896 5898 5897 5898 5898 5898 5897 5896 5896 5895 5896 5896 5896 5897 5898 5900 5900 5902 5902 5903 5903 5903 5904 5905 5907 5909 5912 5916 5918 5921 5922 5925 5927 5929 5931 5934 5935 5935 5937 5941 5942 5942 5942 5942
5890 5889 5890 5890 5892 5894 5896 5897 5898 5899 5898 5898 5897 5897 5896 5897 5897 5898 5899 5900 5902 5903 5903 5905 5905 5907 5907 5909 5910 5912 5914 5918 5920 5922 5923 5925 5927 5929 5932 5934 5936 5937 5938 5939 5941 5942 5943 5944 5945
5889 5889 5890 5891 5892 5893 5894 5897 5898 5899 5899 5898 5898 5898 5898 5898 5899 5899 5900 5902 5903 5905 5906 5906 5907 5910 5911 5912 5914 5916 5919 5921 5922 5924 5926 5927 5929 5931 5934 5935 5937 5938 5940 5941 5942 5943 5944 5945 5946
5888 5889 5888 5889 5888 5889 5892 5894 5896 5898 5899 5898 5898 5899 5899 5899 5901 5901 5902 5904 5905 5907 5908 5909 5910 5912 5913 5915 5917 5919 5921 5922 5924 5925 5927 5930 5931 5934 5935 5937 5937 5939 5941 5943 5943 5945 5946 5947 5947
5887 5888 5888 5888 5888 5888 5891 5891 5890 5896 5897 5897 5898 5899 5900 5900 5902 5902 5903 5905 5907 5909 5910 5911 5912 5914 5916 5917 5919 5921 5922 5924 5926 5928 5930 5931 5932 5935 5937 5937 5937 5940 5943 5943 5945 5946 5947 5948 5948
5885 5886 5886 5887 5887 5887 5886 5888 5892 5894 5896 5897 5898 5898 5900 5901 5902 5904 5905 5906 5908 5910 5912 5913 5915 5917 5918 5920 5921 5923 5924 5927 5928 5930 5931 5932 5934 5936 5937 5939 5940 5941 5943 5945 5946 5948 5948 5949 5949
5884 5883 5883 5884 5885 5885 5885 5888 5890 5891 5891 5896 5897 5898 5899 5901 5903 5904 5906 5907 5909 5911 5913 5915 5917 5918 5920 5922 5923 5924 5926 5928 5930 5931 5932 5933 5936 5938 5939 5940 5941 5941 5943 5944 5946 5948 5949 5949 5949
5878 5879 5879 5882 5883 5882 5881 5883 5886 5888 5890 5893 5897 5897 5898 5900 5902 5904 5906 5908 5909 5911 5914 5917 5918 5919 5921 5923 5924 5925 5927 5929 5931 5932 5933 5935 5937 5939 5941 5942 5943 5943 5944 5945 5947 5948 5949 5949 5950
5875 5877 5876 5881 5881 5881 5880 5879 5882 5884 5887 5891 5894 5896 5897 5899 5901 5904 5906 5909 5910 5912 5914 5917 5918 5921 5923 5925 5926 5927 5928 5930 5932 5933 5934 5936 5938 5940 5941 5942 5943 5943 5945 5947 5948 5949 5950 5951 5950
5872 5874 5872 5878 5878 5879 5879 5880 5880 5882 5884 5887 5891 5894 5897 5897 5898 5902 5904 5908 5910 5911 5914 5916 5919 5921 5924 5926 5927 5927 5929 5931 5932 5934 5936 5937 5938 5940 5941 5942 5943 5944 5946 5948 5950 5950 5950 5951 5951
5869 5870 5871 5874 5877 5879 5878 5879 5879 5880 5881 5883 5886 5891 5895 5896 5898 5902 5904 5906 5909 5911 5913 5915 5918 5921 5924 5926 5928 5928 5930 5933 5934 5934 5935 5938 5939 5940 5941 5942 5943 5945 5947 5948 5949 5950 5950 5951 5951
5866 5867 5869 5871 5874 5876 5877 5878 5876 5876 5873 5879 5885 5888 5892 5895 5897 5900 5903 5905 5909 5910 5913 5915 5917 5920 5923 5926 5927 5930 5932 5932 5934 5935 5936 5938 5940 5941 5943 5944 5945 5946 5947 5948 5949 5950 5950 5950 5951
5860 5865 5868 5869 5871 5876 5875 5876 5874 5871 5873 5875 5880 5884 5888 5891 5895 5897 5902 5905 5908 5910 5912 5915 5917 5919 5922 5925 5927 5930 5932 5933 5934 5936 5937 5939 5940 5942 5944 5945 5947 5948 5948 5949 5949 5950 5949 5950 5951
5859 5862 5870 5873 5872 5873 5873 5874 5873 5870 5872 5874 5875 5881 5885 5887 5892 5896 5901 5904 5907 5909 5911 5914 5916 5918 5920 5923 5926 5929 5931 5933 5934 5935 5937 5939 5941 5942 5944 5946 5947 5947 5948 5949 5949 5950 5950 5949 5950
5855 5863 5869 5870 5872 5871 5870 5871 5872 5871 5873 5874 5874 5877 5881 5883 5889 5894 5897 5901 5905 5908 5910 5912 5915 5917 5919 5921 5923 5926 5929 5931 5934 5935 5937 5939 5941 5942 5943 5945 5947 5947 5947 5949 5950 5951 5950 5950 5950
5853 5855 5862 5862 5864 5867 5870 5869 5871 5871 5872 5871 5872 5876 5879 5882 5886 5891 5895 5899 5902 5905 5907 5910 5913 5916 5918 5921 5922 5924 5927 5929 5932 5934 5935 5937 5940 5942 5944 5945 5946 5946 5947 5948 5948 5949 5949 5950 5950
5848 5854 5857 5860 5862 5866 5865 5865 5867 5868 5870 5870 5871 5874 5876 5880 5884 5887 5891 5895 5898 5901 5905 5908 5911 5914 5917 5919 5921 5923 5925 5927 5930 5932 5935 5937 5939 5941 5943 5944 5945 5946 5947 5947 5948 5948 5948 5948 5949
5846 5848 5852 5853 5860 5860 5863 5861 5861 5864 5867 5868 5870 5872 5874 5875 5880 5884 5888 5891 5895 5897 5902 5905 5908 5911 5914 5917 5919 5921 5923 5925 5927 5929 5932 5934 5936 5938 5940 5942 5942 5943 5945 5945 5945 5946 5946 5947 5947
5844 5847 5851 5851 5852 5855 5855 5856 5857 5859 5862 5864 5866 5867 5869 5871 5873 5879 5884 5888 5892 5896 5898 5902 5905 5908 5910 5913 5916 5919 5922 5923 5925 5927 5929 5932 5934 5936 5937 5938 5940 5941 5942 5942 5942 5943 5943 5944 5944